Voltar ao catálogo

STARLINK-36409

AtivoComunicaçõesVLEO
NORAD 67406·PAYLOAD·🇺🇸 United States

Lançado Jan 12, 2026 de Cape Canaveral Space Force Station

Loading…

Próximas Passagens (próximas 24 horas)

TLE

AtualizadoSource: CelesTrak SupGP

Época: Sep 14, 2026, 22:44 UTC

1 67406C 26005C   26257.94770833  .00030875  00000+0  11184-2 0  2575
2 67406  43.0015 249.2968 0001478 264.0147 305.9039 15.27559977    19

Acompanhe STARLINK-36409 em tempo real com AllMySat

Download on the App Store